Lid_Strength_Index
12 11 11 11 9 9 9 9 8 7 7 8 7 7 7 6 5 4 4 4 5 4 4 4 4 4 4 4 4 5 6 7 10 10 9 8 8 9 9 9 9 9 9
12 11 11 11 10 9 9 9 8 8 7 8 7 7 7 5 4 4 5 5 5 5 5 4 4 4 5 5 5 6 7 7 9 11 10 10 10 10 10 11 11 9 8
12 11 11 11 11 10 9 9 7 8 8 8 7 7 6 5 4 4 5 5 5 5 5 4 5 4 5 5 6 7 7 8 8 10 11 10 11 11 12 12 12 10 10
12 11 11 11 11 11 9 8 7 7 8 7 7 7 6 5 4 4 5 5 5 5 5 5 4 4 5 5 6 7 8 9 9 10 11 11 12 12 12 13 12 11 12
12 12 12 11 11 10 10 8 8 7 6 6 8 7 6 6 5 4 5 5 5 5 5 5 5 7 8 7 7 8 8 9 10 11 12 12 14 13 12 12 13 13 13
12 12 11 11 10 11 10 9 8 7 7 7 7 7 7 6 8 7 6 5 5 6 6 8 8 11 9 10 9 9 8 9 10 10 11 12 12 11 12 12 13 14 16
12 12 11 11 11 11 10 10 7 7 7 7 7 7 7 7 9 9 9 5 6 7 7 8 10 11 10 10 11 11 12 10 9 9 10 9 10 10 12 13 13 13 14
12 12 12 12 12 11 11 10 8 8 8 8 8 8 8 8 10 9 9 7 7 8 8 8 9 10 10 10 11 12 12 12 10 9 8 8 8 9 10 11 12 14 14
13 12 12 11 12 12 11 10 9 9 9 8 9 9 9 9 10 9 8 8 9 9 9 9 9 10 12 11 12 13 13 13 11 10 10 8 8 9 11 12 14 14 14
13 13 12 12 12 12 12 11 12 11 11 12 12 11 12 10 11 10 8 9 11 13 12 12 13 11 12 11 12 13 14 14 13 12 12 11 10 11 11 12 12 13 14
14 14 13 12 12 11 11 12 12 13 13 12 12 12 12 12 10 10 10 10 12 13 13 14 14 11 11 11 12 13 14 13 12 13 14 14 14 15 15 14 14 14 18
13 14 14 14 13 12 12 12 13 13 14 14 13 13 14 13 12 10 10 10 11 12 13 14 13 11 11 11 13 12 13 15 14 14 15 15 16 17 17 17 17 18 18
14 15 14 14 14 14 13 13 14 13 14 14 14 13 13 14 14 11 10 11 11 14 14 13 12 12 11 12 12 13 14 15 17 16 16 17 17 18 19 19 19 20 20
13 14 14 13 14 14 14 13 13 13 13 14 14 14 14 14 13 14 13 13 13 14 13 13 12 13 13 13 14 14 15 16 17 18 17 17 17 18 20 22 19 19 19
13 13 13 13 13 13 14 13 13 13 12 13 13 13 13 13 13 12 12 13 13 13 14 14 15 15 15 15 15 16 17 17 18 18 17 17 18 20 24 26 23 30 27
13 13 13 13 13 12 13 13 12 12 12 11 11 12 14 11 11 11 11 11 12 13 14 14 15 15 15 15 15 16 18 19 18 17 16 16 18 20 22 27 29 26 24
12 12 12 12 12 12 12 12 13 13 12 11 11 11 12 12 11 11 11 11 11 12 13 14 14 14 14 15 15 15 17 18 19 17 15 16 17 20 22 25 25 25 30
12 12 12 11 11 11 11 12 12 13 14 14 13 12 12 12 12 11 11 12 13 12 13 13 14 14 14 15 15 16 17 18 18 16 16 19 19 20 22 25 25 25 25
12 12 11 11 11 11 11 11 12 12 13 14 15 13 14 12 12 12 11 13 13 13 13 13 13 14 14 14 15 16 16 17 17 15 16 19 19 20 21 23 24 25 26
15 12 11 11 11 11 11 11 11 12 13 13 14 14 14 14 14 14 14 13 13 13 12 12 13 13 14 15 16 16 17 17 16 15 17 19 19 19 21 23 23 24 26
13 12 12 11 11 11 11 11 11 11 12 13 13 13 13 14 14 14 14 14 13 12 12 12 12 12 13 14 15 17 17 16 15 16 18 19 20 21 21 21 22 22 25
15 13 12 12 11 11 11 11 11 11 11 11 12 13 12 13 13 14 14 14 14 13 12 12 12 12 12 14 15 16 17 16 17 18 19 20 20 21 21 21 22 23 26
14 13 13 12 12 11 11 11 11 11 11 11 11 12 12 13 13 13 13 13 13 13 14 13 13 12 12 12 13 14 16 17 17 18 19 20 21 21 21 21 22 24 25
15 14 14 13 12 12 12 12 11 11 11 11 11 11 11 12 13 13 13 13 13 13 13 13 13 13 13 13 14 14 14 15 16 17 18 19 20 20 20 21 21 22 24
18 15 14 13 13 13 12 12 12 11 11 11 11 11 11 11 11 12 13 13 13 13 13 13 13 14 14 14 14 14 14 16 17 17 17 18 19 20 20 21 21 22 23
21 19 16 14 13 13 13 13 12 12 11 11 11 11 11 11 11 11 11 12 13 13 13 14 13 14 14 15 15 15 16 17 18 18 18 19 20 20 21 21 22 22 23